Weather History for KJFZ - October, 2013

Change the Weather History Date:

Monday, October 21, 2013

  Actual Average (KBLF) Record (KBLF)
Temperature  
Mean Temperature 56 °F 55 °F  
Max Temperature 65 °F 64 °F 80 °F (2007)
Min Temperature 46 °F 46 °F 24 °F (1974)
Degree Days  
Heating Degree Days 10 10  
Month to date heating degree days 169  
Since 1 July heating degree days 248  
Cooling Degree Days 0 0  
Month to date cooling degree days 16  
Year to date cooling degree days 848  
Growing Degree Days 6 (Base 50)    
Moisture  
Dew Point 39 °F    
Average Humidity 54    
Maximum Humidity 71    
Minimum Humidity 35    
Precipitation  
Precipitation 0.00 in 0.08 in 1.80 in (1983)
Month to date precipitation 1.70  
Year to date precipitation 33.23  
Snow  
Snow 0.00 in - - ()
Month to date snowfall  
Since 1 July snowfall  
Since 1 September snowfall  
Snow Depth -    
Sea Level Pressure  
Sea Level Pressure 30.07 in    
Wind  
Wind Speed 4 mph (SSW)    
Max Wind Speed 10 mph    
Max Gust Speed 18 mph    
Visibility 10 miles    
Events      
T = Trace of Precipitation, MM = Missing Value Source: NWS Daily Summary

Daily Weather History Graph

Daily Weather History Graph

Search for Another Location

Airport or City:

Trip Planner

Search our weather history database for the weather conditions in past years. The results will help you decide how hot, cold, wet, or windy it might be!

Date:

Astronomy

Oct. 21, 2013 Rise Set
Actual Time 7:40 AM EDT 6:42 PM EDT
Civil Twilight 7:14 AM EDT 7:08 PM EDT
Nautical Twilight 6:44 AM EDT 7:38 PM EDT
Astronomical Twilight 6:13 AM EDT 8:08 PM EDT
Moon 8:37 PM EDT (10/21) 10:11 AM EDT (10/21)
Length of Visible Light 11h 54m
Length of Day
11h 01m
Waning Gibbous, 93% of the Moon is Illuminated
Oct 21
Waning Gibbous
Oct 26
Last Quarter
Nov 3
New
Nov 10
First Quarter
Nov 17
Full

Hourly Weather History & Observations

Time (EDT) Temp. Dew Point Humidity Pressure Visibility Wind Dir Wind Speed Gust Speed Precip Events Conditions
12:15 AM 48.0 °F 33.6 °F 57% 30.08 in 10.0 mi Calm Calm - N/A   Clear
12:35 AM 49.1 °F 32.9 °F 54% 30.08 in 10.0 mi Calm Calm - N/A   Clear
12:55 AM 48.9 °F 32.5 °F 53% 30.07 in 10.0 mi SE 3.5 mph - N/A   Clear
1:15 AM 49.3 °F 32.0 °F 51% 30.07 in 10.0 mi SSE 4.6 mph - N/A   Clear
1:35 AM 50.9 °F 32.5 °F 49% 30.07 in 10.0 mi South 3.5 mph - N/A   Clear
1:55 AM 46.0 °F 33.6 °F 62% 30.07 in 10.0 mi Calm Calm - N/A   Clear
2:15 AM 51.4 °F 34.7 °F 53% 30.07 in 10.0 mi South 5.8 mph - N/A   Clear
2:35 AM 49.8 °F 34.9 °F 56% 30.08 in 10.0 mi SSE 4.6 mph - N/A   Clear
2:55 AM 50.9 °F 36.3 °F 57% 30.08 in 10.0 mi SSE 3.5 mph - N/A   Clear
3:15 AM 50.9 °F 36.5 °F 58% 30.08 in 10.0 mi SSE 3.5 mph - N/A   Clear
3:35 AM 51.8 °F 37.4 °F 58% 30.08 in 10.0 mi SSE 3.5 mph - N/A   Clear
3:55 AM 51.4 °F 37.4 °F 59% 30.08 in 10.0 mi South 3.5 mph - N/A   Clear
4:15 AM 49.8 °F 37.4 °F 62% 30.08 in 10.0 mi South 4.6 mph - N/A   Clear
4:35 AM 50.2 °F 37.6 °F 62% 30.08 in 10.0 mi South 4.6 mph - N/A   Clear
4:55 AM 50.9 °F 38.5 °F 62% 30.08 in 10.0 mi South 4.6 mph - N/A   Clear
5:15 AM 49.6 °F 38.7 °F 66% 30.08 in 10.0 mi SSE 5.8 mph - N/A   Clear
5:35 AM 50.9 °F 38.8 °F 63% 30.09 in 10.0 mi SSE 4.6 mph - N/A   Clear
5:55 AM 51.1 °F 38.8 °F 63% 30.10 in 10.0 mi South 4.6 mph - N/A   Clear
6:15 AM 50.9 °F 38.8 °F 63% 30.10 in 10.0 mi SSE 3.5 mph - N/A   Clear
6:35 AM 49.8 °F 38.7 °F 65% 30.10 in 10.0 mi SSE 3.5 mph - N/A   Clear
6:55 AM 49.5 °F 38.7 °F 66% 30.10 in 10.0 mi SSE 4.6 mph - N/A   Clear
7:15 AM 48.0 °F 38.8 °F 71% 30.10 in 10.0 mi SSE 4.6 mph - N/A   Clear
7:35 AM 50.2 °F 39.4 °F 66% 30.10 in 10.0 mi South 4.6 mph - N/A   Clear
7:55 AM 48.9 °F 39.2 °F 69% 30.11 in 10.0 mi South 5.8 mph - N/A   Clear
8:15 AM 50.0 °F 39.7 °F 68% 30.11 in 10.0 mi South 3.5 mph - N/A   Clear
8:35 AM 49.6 °F 39.9 °F 69% 30.12 in 10.0 mi Calm Calm - N/A   Clear
8:55 AM 51.4 °F 41.0 °F 68% 30.12 in 10.0 mi Calm Calm - N/A   Clear
9:15 AM 52.7 °F 41.9 °F 67% 30.12 in 10.0 mi Calm Calm - N/A   Clear
9:35 AM 53.6 °F 41.7 °F 64% 30.13 in 10.0 mi SE 3.5 mph - N/A   Clear
9:55 AM 54.5 °F 42.4 °F 64% 30.12 in 10.0 mi Calm Calm - N/A   Clear
10:15 AM 55.9 °F 42.8 °F 61% 30.12 in 10.0 mi Calm Calm - N/A   Clear
10:35 AM 57.0 °F 42.6 °F 59% 30.12 in 10.0 mi Calm Calm - N/A   Clear
10:55 AM 55.6 °F 43.0 °F 63% 30.12 in 10.0 mi Calm Calm - N/A   Clear
11:15 AM 57.4 °F 43.2 °F 59% 30.12 in 10.0 mi WNW 3.5 mph - N/A   Clear
11:35 AM 58.1 °F 43.2 °F 58% 30.12 in 10.0 mi NW 5.8 mph - N/A   Clear
11:55 AM 60.4 °F 43.9 °F 54% 30.12 in 10.0 mi WNW 5.8 mph - N/A   Clear
12:15 PM 60.8 °F 41.4 °F 49% 30.11 in 10.0 mi West 3.5 mph - N/A   Clear
12:35 PM 62.4 °F 41.9 °F 47% 30.11 in 10.0 mi SW 4.6 mph - N/A   Clear
12:55 PM 63.1 °F 40.3 °F 43% 30.10 in 10.0 mi SW 4.6 mph - N/A   Clear
1:15 PM 64.2 °F 39.9 °F 41% 30.10 in 10.0 mi WSW 10.4 mph 18.4 mph N/A   Clear
1:55 PM 63.5 °F 38.1 °F 39% 30.07 in 10.0 mi WSW 9.2 mph 17.3 mph N/A   Clear
2:15 PM 62.6 °F 37.8 °F 40% 30.06 in 10.0 mi SW 8.1 mph - N/A   Clear
2:35 PM 63.9 °F 38.8 °F 40% 30.05 in 10.0 mi WSW 9.2 mph - N/A   Clear
2:55 PM 65.1 °F 38.8 °F 38% 30.05 in 10.0 mi WSW 4.6 mph - N/A   Clear
3:15 PM 64.6 °F 39.9 °F 40% 30.04 in 10.0 mi SW 8.1 mph - N/A   Clear
3:35 PM 64.6 °F 40.1 °F 41% 30.03 in 10.0 mi SW 6.9 mph - N/A   Clear
3:55 PM 64.6 °F 39.2 °F 39% 30.03 in 10.0 mi SW 10.4 mph - N/A   Clear
4:15 PM 65.3 °F 39.7 °F 39% 30.03 in 10.0 mi SSW 6.9 mph - N/A   Clear
4:35 PM 64.9 °F 38.3 °F 37% 30.03 in 10.0 mi WSW 6.9 mph - N/A   Clear
4:55 PM 64.6 °F 36.5 °F 35% 30.03 in 10.0 mi WSW 8.1 mph - N/A   Clear
5:15 PM 63.5 °F 37.4 °F 38% 30.04 in 10.0 mi SW 6.9 mph - N/A   Clear
5:35 PM 63.1 °F 37.2 °F 38% 30.03 in 10.0 mi WSW 5.8 mph - N/A   Clear
5:55 PM 61.9 °F 38.5 °F 42% 30.04 in 10.0 mi WSW 6.9 mph - N/A   Clear
6:15 PM 61.3 °F 38.3 °F 43% 30.04 in 10.0 mi WSW 5.8 mph - N/A   Clear
6:35 PM 60.1 °F 38.3 °F 44% 30.04 in 10.0 mi WSW 6.9 mph - N/A   Clear
6:55 PM 59.7 °F 38.7 °F 46% 30.04 in 10.0 mi WSW 4.6 mph - N/A   Clear
7:15 PM 59.4 °F 38.8 °F 47% 30.03 in 10.0 mi SW 4.6 mph - N/A   Clear
7:35 PM 58.6 °F 39.2 °F 48% 30.03 in 10.0 mi South 4.6 mph - N/A   Clear
7:55 PM 57.9 °F 39.7 °F 51% 30.03 in 10.0 mi South 3.5 mph - N/A   Clear
8:15 PM 57.6 °F 39.6 °F 51% 30.03 in 10.0 mi South 4.6 mph - N/A   Clear
8:35 PM 57.2 °F 39.9 °F 52% 30.03 in 10.0 mi South 4.6 mph - N/A   Clear
8:55 PM 56.8 °F 39.7 °F 53% 30.03 in 10.0 mi SSW 8.1 mph - N/A   Clear
9:15 PM 58.1 °F 39.7 °F 50% 30.03 in 10.0 mi SSW 5.8 mph - N/A   Clear
9:35 PM 58.1 °F 39.9 °F 51% 30.02 in 10.0 mi SSW 6.9 mph - N/A   Clear
9:55 PM 57.7 °F 40.1 °F 52% 30.02 in 10.0 mi SW 5.8 mph - N/A   Clear
10:15 PM 57.9 °F 40.5 °F 52% 30.02 in 10.0 mi WSW 6.9 mph - N/A   Clear
10:35 PM 57.9 °F 40.8 °F 53% 30.02 in 10.0 mi SW 6.9 mph - N/A   Clear
10:55 PM 57.2 °F 41.0 °F 55% 30.01 in 10.0 mi SW 4.6 mph - N/A   Scattered Clouds
11:15 PM 57.0 °F 41.4 °F 56% 30.01 in 10.0 mi SW 4.6 mph - N/A   Scattered Clouds
11:35 PM 56.1 °F 41.2 °F 57% 30.01 in 10.0 mi SW 5.8 mph - N/A   Clear
11:55 PM 55.0 °F 41.5 °F 60% 30.00 in 10.0 mi SSW 5.8 mph - N/A   Clear